OK1HRA-8 Weather Reports


time (UTC)temp
C
wind
direction
speed
KPH
gust
KPH
rain 1hr
cm
rain 24hr
cm
rain mn
cm
humidity
%
barometer
mb
20260506062101 11 225 19.3 25.7 0.00 0.00 0.00 8 994.6
20260506061554 11 225 16.1 24.1 0.00 0.00 0.00 8 996.5
20260506061046 11 -1 16.1 25.7 0.00 0.00 0.00 9 995.9
20260506060539 11 -1 17.7 27.4 0.00 0.00 0.00 9 995.0
20260506050918 11 180 16.1 22.5 0.00 0.00 0.00 8 993.2
20260506050410 10 225 16.1 24.1 0.00 0.00 0.00 8 993.6
20260506044849 10 225 16.1 29.0 0.00 0.00 0.00 8 993.1
20260506044342 10 225 14.5 24.1 0.00 0.00 0.00 9 994.0
20260506043834 10 225 12.9 22.5 0.00 0.00 0.00 9 995.1
20260506043326 10 225 14.5 22.5 0.00 0.00 0.00 9 994.4
20260506042818 10 270 12.9 20.9 0.00 0.00 0.00 9 993.7
20260506042311 10 225 14.5 24.1 0.00 0.00 0.00 9 995.1
20260506041804 10 225 14.5 22.5 0.00 0.00 0.00 9 992.0
20260506041256 10 225 16.1 24.1 0.00 0.00 0.00 8 993.2
20260506040748 10 225 16.1 25.7 0.00 0.00 0.00 8 993.4
20260506040241 10 -1 16.1 22.5 0.00 0.00 0.00 9 992.8
20260506035733 10 225 19.3 32.2 0.00 0.00 0.00 9 994.7
20260506035226 10 225 14.5 22.5 0.00 0.00 0.00 9 993.7
20260506034719 10 225 17.7 27.4 0.00 0.00 0.00 10 993.3
20260506034212 10 -1 17.7 25.7 0.00 0.00 0.00 9 993.5
20260506033705 10 270 17.7 24.1 0.00 0.00 0.00 10 993.8
20260506033158 10 225 16.1 27.4 0.00 0.00 0.00 10 994.8
20260506032651 10 225 16.1 24.1 0.00 0.00 0.00 10 994.5
20260506032144 10 270 17.7 29.0 0.00 0.00 0.00 10 994.4
20260506031637 10 225 16.1 24.1 0.00 0.00 0.00 10 995.7
20260506031130 10 270 19.3 29.0 0.00 0.00 0.00 10 995.1
20260506030623 10 270 19.3 29.0 0.00 0.00 0.00 10 994.6
20260506030116 10 225 19.3 29.0 0.00 0.00 0.00 10 994.9
20260506025609 10 -1 17.7 25.7 0.00 0.00 0.00 10 995.0
20260506025102 10 -1 17.7 29.0 0.00 0.00 0.00 10 995.0
20260506024555 10 -1 16.1 25.7 0.00 0.00 0.00 10 996.3
20260506024048 10 -1 16.1 25.7 0.00 0.00 0.00 10 995.7
20260506023541 10 -1 17.7 27.4 0.00 0.00 0.00 10 995.1
20260506023034 10 225 17.7 25.7 0.00 0.00 0.00 10 993.9
20260506022527 10 225 20.9 33.8 0.00 0.00 0.00 9 995.1
20260506022020 10 -1 20.9 33.8 0.00 0.00 0.00 10 996.2
20260506021513 10 -1 20.9 30.6 0.00 0.00 0.00 10 995.1
20260506021006 10 -1 17.7 25.7 0.00 0.00 0.00 10 996.0
20260506020459 10 -1 17.7 27.4 0.00 0.00 0.00 10 995.8
20260506015952 10 -1 17.7 30.6 0.00 0.00 0.00 10 996.7
20260506015445 10 225 19.3 27.4 0.00 0.00 0.00 10 996.6
20260506014938 10 225 17.7 27.4 0.00 0.00 0.00 10 997.3
20260506014431 10 -1 17.7 27.4 0.00 0.00 0.00 10 996.1
20260506013924 10 -1 19.3 29.0 0.00 0.00 0.00 10 995.9
20260506013417 10 -1 20.9 32.2 0.00 0.00 0.00 10 995.6
20260506012910 10 -1 22.5 33.8 0.00 0.00 0.00 10 995.3
20260506012403 10 -1 20.9 32.2 0.00 0.00 0.00 10 996.7
20260506011856 11 -1 19.3 30.6 0.00 0.00 0.00 10 996.9
20260506011349 11 -1 19.3 30.6 0.00 0.00 0.00 10 996.4
20260506010842 11 -1 20.9 32.2 0.00 0.00 0.00 10 997.0
20260506010335 11 -1 17.7 29.0 0.00 0.00 0.00 10 997.5
20260506005828 11 -1 19.3 30.6 0.00 0.00 0.00 10 996.6
20260506005321 11 -1 17.7 29.0 0.00 0.00 0.00 9 996.4
20260506004814 11 -1 20.9 29.0 0.00 0.00 0.00 9 997.3
20260506004307 11 -1 19.3 29.0 0.00 0.00 0.00 10 995.7
20260506003800 11 -1 19.3 29.0 0.00 0.00 0.00 9 997.5
20260506003253 11 -1 17.7 32.2 0.00 0.00 0.00 10 997.6
20260506002746 11 -1 19.3 29.0 0.00 0.00 0.00 9 998.0
20260506002238 11 -1 22.5 37.0 0.00 0.00 0.00 10 994.5
20260506001730 11 -1 20.9 30.6 0.00 0.00 0.00 10 996.2
20260506001223 11 -1 20.9 33.8 0.00 0.00 0.00 9 996.6
20260506000716 11 -1 22.5 32.2 0.00 0.00 0.00 10 997.2
20260506000209 11 -1 22.5 37.0 0.00 0.00 0.00 9 998.9
20260505235702 11 -1 16.1 27.4 0.00 0.00 0.30 10 996.2
20260505235155 11 -1 16.1 25.7 0.00 0.00 0.30 9 998.3
20260505234648 11 -1 16.1 24.1 0.00 0.00 0.30 10 996.5
20260505234141 11 -1 16.1 20.9 0.00 0.00 0.30 9 994.9
20260505233634 11 -1 17.7 22.5 0.00 0.00 0.30 9 996.4
20260505233127 11 -1 14.5 19.3 0.00 0.00 0.30 9 995.6
20260505232620 11 -1 14.5 22.5 0.00 0.00 0.30 9 995.4
20260505232112 11 -1 14.5 19.3 0.00 0.00 0.30 8 995.7
20260505231605 11 -1 16.1 19.3 0.00 0.00 0.30 8 995.0
20260505231057 11 -1 12.9 17.7 0.00 0.00 0.30 8 994.9
20260505230549 11 -1 9.7 11.3 0.00 0.00 0.30 8 994.4
20260505230042 11 -1 0.0 0.0 0.00 0.00 0.30 8 994.8
20260505225535 11 -1 0.0 0.0 0.00 0.00 0.30 9 996.4
20260505225028 11 -1 0.0 0.0 0.00 0.00 0.30 9 997.7
20260505224521 11 -1 0.0 0.0 0.00 0.00 0.30 9 997.3
20260505224014 11 -1 0.0 0.0 0.00 0.00 0.30 9 997.2
20260505223506 11 -1 0.0 0.0 0.00 0.00 0.30 10 996.1
20260505222959 11 -1 0.0 0.0 0.00 0.00 0.30 10 995.7
20260505222452 11 -1 0.0 0.0 0.00 0.00 0.30 9 994.5
20260505221944 11 -1 0.0 0.0 0.00 0.00 0.30 9 996.9
20260505221437 11 0 0.0 0.0 0.00 0.00 0.30 9 996.4
20260505220930 11 0 0.0 0.0 0.00 0.00 0.30 9 995.9
20260505220422 11 -1 0.0 0.0 0.00 0.00 0.30 9 995.9
20260505215914 11 -1 0.0 0.0 0.00 0.00 0.30 9 996.0
20260505215406 11 -1 0.0 0.0 0.00 0.00 0.30 9 996.1
20260505214858 11 -1 0.0 0.0 0.00 0.00 0.30 9 996.9
20260505214350 11 -1 0.0 0.0 0.00 0.00 0.30 10 997.5
20260505213843 11 -1 0.0 0.0 0.00 0.00 0.30 10 995.4
20260505213336 11 -1 0.0 0.0 0.00 0.00 0.30 9 994.2
20260505212828 11 -1 8.0 12.9 0.00 0.00 0.30 8 995.4
20260505212320 11 -1 6.4 11.3 0.00 0.00 0.30 8 996.6
20260505211812 11 -1 11.3 19.3 0.00 0.00 0.30 10 996.0
20260505211305 11 -1 16.1 27.4 0.00 0.00 0.30 10 997.0
20260505210758 11 -1 22.5 35.4 0.00 0.00 0.30 10 996.4
20260505210251 11 -1 25.7 38.6 0.00 0.00 0.28 10 996.1
20260505205744 11 -1 20.9 27.4 0.00 0.00 0.28 10 998.2
20260505205237 11 0 17.7 32.2 0.00 0.00 0.25 10 998.1
20260505204730 12 0 22.5 35.4 0.00 0.00 0.25 10 997.3
20260505204223 12 0 22.5 33.8 0.00 0.00 0.23 10 996.7
20260505203716 12 -1 22.5 30.6 0.00 0.00 0.20 9 996.8
20260505203209 12 -1 22.5 35.4 0.00 0.00 0.20 10 997.5
20260505202702 12 -1 22.5 33.8 0.00 0.00 0.18 10 999.1
20260505202155 12 -1 22.5 35.4 0.00 0.00 0.15 10 999.5
20260505201648 12 -1 24.1 33.8 0.00 0.00 0.15 10 1000.3
20260505201141 12 -1 22.5 33.8 0.00 0.00 0.15 10 1000.0
20260505200634 13 -1 22.5 33.8 0.00 0.00 0.13 10 999.6
20260505200126 13 -1 22.5 38.6 0.00 0.00 0.10 10 1000.4
20260505195618 13 -1 25.7 40.2 0.00 0.00 0.08 10 998.2
20260505195111 13 -1 27.4 43.5 0.00 0.00 0.03 9 995.5
20260505194603 14 -1 19.3 29.0 0.00 0.00 0.00 8 998.4
20260505194056 15 -1 16.1 24.1 0.00 0.00 0.00 8 993.3
20260505193548 15 -1 14.5 22.5 0.00 0.00 0.00 7 994.0
20260505193040 14 -1 8.0 14.5 0.00 0.00 0.00 7 995.8
20260505192533 15 -1 9.7 17.7 0.00 0.00 0.00 7 996.5
20260505192025 16 -1 12.9 19.3 0.00 0.00 0.00 7 996.3
20260505191518 17 -1 9.7 17.7 0.00 0.00 0.00 6 990.7
20260505191010 16 -1 9.7 14.5 0.00 0.00 0.00 6 990.7
20260505190502 17 -1 9.7 16.1 0.00 0.00 0.00 6 990.4
20260505185954 17 -1 8.0 17.7 0.00 0.00 0.00 6 989.7
20260505185447 17 -1 11.3 17.7 0.00 0.00 0.00 6 989.6
20260505184939 17 -1 9.7 16.1 0.00 0.00 0.00 6 989.6
20260505184432 17 -1 6.4 12.9 0.00 0.00 0.00 6 989.8
20260505183925 17 -1 8.0 14.5 0.00 0.00 0.00 6 989.5
20260505183417 17 -1 8.0 12.9 0.00 0.00 0.00 6 989.9
20260505182909 17 -1 8.0 11.3 0.00 0.00 0.00 6 989.1
20260505182402 17 -1 0.0 0.0 0.00 0.00 0.00 5 989.8
20260505181855 17 -1 6.4 8.0 0.00 0.00 0.00 5 989.3
20260505181348 17 -1 0.0 0.0 0.00 0.00 0.00 5 990.2
20260505180841 18 -1 0.0 0.0 0.00 0.00 0.00 5 990.5
20260505180334 18 -1 8.0 14.5 0.00 0.00 0.00 5 990.4
20260505175827 18 -1 8.0 16.1 0.00 0.00 0.00 5 988.9
20260505175319 18 -1 9.7 20.9 0.00 0.00 0.00 5 988.3
20260505174812 18 -1 9.7 19.3 0.00 0.00 0.00 5 989.1
20260505174305 18 -1 11.3 24.1 0.00 0.00 0.00 5 990.1
20260505173757 18 -1 9.7 25.7 0.00 0.00 0.00 5 991.0
20260505173249 19 -1 19.3 35.4 0.00 0.00 0.00 6 992.1
20260505172741 19 -1 25.7 37.0 0.00 0.00 0.00 6 990.4
20260505172234 20 -1 24.1 38.6 0.00 0.00 0.00 6 990.3
20260505171726 20 -1 24.1 41.8 0.00 0.00 0.00 6 990.5
20260505171218 20 -1 24.1 35.4 0.00 0.00 0.00 6 990.6
20260505170711 20 -1 17.7 30.6 0.00 0.00 0.00 6 990.9
20260505170204 20 -1 22.5 32.2 0.00 0.00 0.00 5 990.4
20260505165656 20 -1 20.9 29.0 0.00 0.00 0.00 6 990.6
20260505165149 20 -1 20.9 33.8 0.00 0.00 0.00 6 990.6
20260505164642 20 -1 24.1 33.8 0.00 0.00 0.00 5 990.4
20260505164135 20 -1 19.3 33.8 0.00 0.00 0.00 5 989.5
20260505163627 21 -1 14.5 25.7 0.00 0.00 0.00 4 987.6
20260505163120 21 -1 9.7 19.3 0.00 0.00 0.00 4 989.2
20260505162612 21 -1 11.3 20.9 0.00 0.00 0.00 4 988.6
20260505162105 21 -1 9.7 22.5 0.00 0.00 0.00 4 988.0
20260505161558 21 -1 11.3 20.9 0.00 0.00 0.00 4 987.9
20260505161051 21 -1 11.3 22.5 0.00 0.00 0.00 4 989.0
20260505160543 21 -1 12.9 24.1 0.00 0.00 0.00 4 988.2
20260505152952 22 -1 12.9 22.5 0.00 0.00 0.00 4 990.0
20260505152445 22 -1 12.9 25.7 0.00 0.00 0.00 4 989.1
20260505151937 22 -1 11.3 22.5 0.00 0.00 0.00 3 990.2
20260505151429 22 -1 9.7 17.7 0.00 0.00 0.00 3 990.2
20260505150921 21 -1 12.9 19.3 0.00 0.00 0.00 3 989.5
20260505150414 21 -1 14.5 22.5 0.00 0.00 0.00 3 989.6
20260505140245 22 -1 12.9 20.9 0.00 0.00 0.00 3 990.2
20260505130112 23 0 8.0 14.5 0.00 0.00 0.00 3 988.3
20260505124549 22 -1 9.7 17.7 0.00 0.00 0.00 3 992.9
20260505124042 22 -1 14.5 22.5 0.00 0.00 0.00 3 991.3
20260505123535 23 -1 11.3 25.7 0.00 0.00 0.00 3 993.6
20260505123027 23 -1 8.0 17.7 0.00 0.00 0.00 3 994.7
20260505122520 23 -1 9.7 12.9 0.00 0.00 0.00 3 994.9
20260505122012 22 -1 9.7 22.5 0.00 0.00 0.00 3 992.9
20260505121504 22 -1 12.9 25.7 0.00 0.00 0.00 4 989.9
20260505120956 23 -1 11.3 19.3 0.00 0.00 0.00 3 990.9
20260505120449 23 -1 9.7 16.1 0.00 0.00 0.00 3 995.0
20260505115942 22 -1 8.0 17.7 0.00 0.00 0.00 3 995.3
20260505115435 22 -1 11.3 24.1 0.00 0.00 0.00 3 995.2
20260505114928 22 -1 11.3 24.1 0.00 0.00 0.00 3 995.1
20260505114421 22 -1 9.7 20.9 0.00 0.00 0.00 3 996.3
20260505113914 22 -1 9.7 20.9 0.00 0.00 0.00 3 994.0
20260505113407 22 -1 11.3 20.9 0.00 0.00 0.00 3 995.6
20260505112859 21 -1 11.3 22.5 0.00 0.00 0.00 4 992.3
20260505112352 21 -1 12.9 29.0 0.00 0.00 0.00 4 992.7
20260505111844 21 -1 11.3 22.5 0.00 0.00 0.00 4 992.9
20260505111337 22 -1 11.3 19.3 0.00 0.00 0.00 4 993.0
20260505110830 21 -1 9.7 19.3 0.00 0.00 0.00 4 993.5
20260505110322 21 -1 17.7 27.4 0.00 0.00 0.00 4 993.5
20260505102221 20 -1 9.7 19.3 0.00 0.00 0.00 4 993.1
20260505101714 20 -1 14.5 22.5 0.00 0.00 0.00 4 994.7
20260505101206 20 -1 14.5 25.7 0.00 0.00 0.00 4 992.2
20260505100658 20 -1 11.3 20.9 0.00 0.00 0.00 4 997.0
20260505100151 20 -1 16.1 27.4 0.00 0.00 0.00 4 993.7
20260505095643 20 -1 9.7 27.4 0.00 0.00 0.00 4 994.9
20260505095135 20 -1 8.0 16.1 0.00 0.00 0.00 4 994.1
20260505094628 20 -1 11.3 19.3 0.00 0.00 0.00 4 994.2
20260505094121 20 0 12.9 22.5 0.00 0.00 0.00 4 994.7
20260505093613 20 0 11.3 19.3 0.00 0.00 0.00 4 995.2
20260505093106 20 -1 9.7 14.5 0.00 0.00 0.00 4 994.7
20260505092558 20 45 11.3 22.5 0.00 0.00 0.00 4 994.4
20260505092050 20 -1 14.5 25.7 0.00 0.00 0.00 4 993.6
20260505091543 20 -1 12.9 27.4 0.00 0.00 0.00 5 993.7
20260505091036 20 0 11.3 20.9 0.00 0.00 0.00 4 993.2
20260505090529 20 315 9.7 17.7 0.00 0.00 0.00 4 994.3
20260505090022 20 45 11.3 19.3 0.00 0.00 0.00 4 993.3
20260505085514 19 -1 9.7 16.1 0.00 0.00 0.00 4 994.6
20260505085007 20 -1 11.3 30.6 0.00 0.00 0.00 4 993.7
20260505084500 20 -1 8.0 16.1 0.00 0.00 0.00 4 993.8
20260505083952 19 -1 11.3 19.3 0.00 0.00 0.00 4 996.1
20260505083445 20 -1 0.0 0.0 0.00 0.00 0.00 4 995.6
20260505082938 20 0 9.7 19.3 0.00 0.00 0.00 4 995.9
20260505082431 19 0 9.7 16.1 0.00 0.00 0.00 4 995.0
20260505081924 20 -1 0.0 0.0 0.00 0.00 0.00 4 996.7
20260505081417 19 -1 8.0 16.1 0.00 0.00 0.00 4 995.5
20260505080910 19 -1 8.0 16.1 0.00 0.00 0.00 4 996.4
20260505080403 19 -1 8.0 14.5 0.00 0.00 0.00 5 993.9
20260505075856 18 -1 11.3 17.7 0.00 0.00 0.00 5 994.5
20260505075349 18 -1 9.7 16.1 0.00 0.00 0.00 5 994.5
20260505074842 18 -1 8.0 12.9 0.00 0.00 0.00 5 995.5
20260505074334 18 -1 9.7 16.1 0.00 0.00 0.00 5 994.9
20260505073826 18 -1 11.3 20.9 0.00 0.00 0.00 5 995.8
20260505073320 18 -1 9.7 20.9 0.00 0.00 0.00 5 995.2
20260505072813 18 -1 11.3 22.5 0.00 0.00 0.00 6 996.1
20260505072306 17 -1 12.9 17.7 0.00 0.00 0.00 5 995.3
20260505071758 17 -1 9.7 17.7 0.00 0.00 0.00 5 995.5
20260505071252 17 0 8.0 12.9 0.00 0.00 0.00 5 996.3
20260505070744 17 -1 6.4 12.9 0.00 0.00 0.00 5 996.5
20260505070237 16 -1 0.0 0.0 0.00 0.00 0.00 5 996.8
20260505065730 16 0 0.0 0.0 0.00 0.00 0.00 6 997.0
20260505065222 16 -1 0.0 0.0 0.00 0.00 0.00 6 995.7
20260505064715 16 -1 0.0 0.0 0.00 0.00 0.00 6 995.7